Location: Ammerl�gen
(47.2167°N, 9.6000°E)
Time: 12:00:54
(UTC+00:00)

Envisat - Visible Passes

Search period start: 28 September 2021 00:00
Search period end: 08 October 2021 00:00
Orbit: 764 x 766 km, 98.2° (Epoch: 28 September)

Date Brightness Start Highest point End Pass type
(mag) Time Alt. Az. Time Alt. Az. Time Alt. Az.
28 Sep 5.1 03:47:28 10° NNE 03:51:55 30° E 03:56:20 10° SSE visible
29 Sep 6.0 03:11:57 10° NE 03:14:40 14° E 03:17:23 10° ESE visible
30 Sep 4.1 04:12:28 10° NNE 04:17:25 49° E 04:22:19 10° S visible
01 Oct 5.4 03:36:13 10° NE 03:40:18 24° E 03:44:22 10° SE visible
02 Oct 6.2 03:01:29 10° ENE 03:02:59 11° E 03:04:30 10° ESE visible
02 Oct 3.2 04:37:41 10° NNE 04:42:49 82° ESE 04:47:53 10° SSW visible
03 Oct 4.5 04:01:04 10° NNE 04:05:51 39° E 04:10:35 10° SSE visible
04 Oct 5.7 03:25:03 10° NE 03:28:40 19° E 03:32:16 10° SE visible
05 Oct 3.5 04:26:12 10° NNE 04:31:17 66° ESE 04:36:19 10° S visible
06 Oct 4.9 03:49:43 10° NNE 03:54:15 32° E 03:58:45 10° SSE visible
07 Oct 6.0 03:14:02 10° NE 03:17:01 15° E 03:19:58 10° SE visible
07 Oct 3.0 04:51:31 10° N 04:56:37 76° WNW 05:01:41 10° SSW visible
